Location: Barens
(45.7376°N, 5.2126°E)
Time: 14:24:31
(UTC+00:00)

Daily predictions for brighter satellites

Satellite Brightness Start Highest point End
(mag) Time Altitude Azimuth Time Altitude Azimuth Time Altitude Azimuth
COSMO-SKYMED 1 3.3 17:10:37 10° NNE 17:14:32 32° E 17:18:26 10° SSE
Cosmos 1833 Rocket 2.8 17:11:56 10° NNW 17:17:27 53° ENE 17:22:55 10° SE
Unknown 4.0 17:16:21 10° WNW 17:19:20 44° SW 17:22:20 10° SE
NOSS 3-2 (C) 4.5 17:16:31 10° SSE 17:20:54 23° ESE 17:25:39 10° ENE
Cosmos 1953 Rocket 4.1 17:16:47 10° NNW 17:21:06 63° W 17:25:22 10° S
ASTEX 1 3.5 17:18:50 10° NNE 17:23:44 55° E 17:28:37 10° S
BREEZE-M DEB (TANK) 4.4 17:10:00 10° SW 17:24:18 47° SSE 17:28:14 11° E
Cosmos 1777 Rocket 4.0 17:21:48 10° NNW 17:27:02 82° ENE 17:32:14 10° SSE
Okean-O 2.7 17:22:43 10° SSE 17:27:09 83° WSW 17:31:38 10° NNW
Lacrosse 5 1.9 17:26:18 10° NW 17:31:21 66° NE 17:36:23 10° ESE
Unknown 3.1 17:29:45 10° NW 17:33:09 73° NNE 17:36:20 12° ESE
Cosmos 1076 Rocket 4.4 17:31:12 10° NNE 17:35:00 28° ENE 17:38:46 10° SE
Cosmos 1605 Rocket 3.9 17:29:23 10° N 17:35:33 68° E 17:41:37 10° SSE
Cosmos 1328 4.0 17:32:29 10° NNW 17:36:27 73° W 17:40:22 10° S
Cosmos 1934 Rocket 4.2 17:30:08 10° N 17:36:31 81° W 17:42:53 10° S
Cosmos 1300 3.8 17:34:00 10° SE 17:37:03 23° E 17:40:08 10° NE
Cosmos 2058 4.1 17:34:00 10° NNE 17:37:18 22° ENE 17:40:35 10° ESE
Cosmos 1242 Rocket 3.8 17:36:26 10° NNW 17:40:00 46° W 17:43:30 10° S
H-2A R/B 4.5 17:41:27 10° SSW 17:45:06 38° W 17:48:48 10° NNW
ATLAS 3B R/B 3.6 17:40:32 10° SSE 17:45:53 26° ESE 17:50:13 14° ENE
FALCON 9 DEB 3.1 17:42:26 10° WNW 17:45:55 78° NNE 17:48:30 17° ESE
CZ-2D R/B 4.1 17:43:25 10° SE 17:46:47 30° ENE 17:50:12 10° N
CSL-04 Debris 4.2 17:42:26 10° SSE 17:47:48 62° ENE 17:53:14 10° N
Cosmos 1727 Rocket 4.1 17:42:54 10° SSE 17:48:50 53° E 17:54:49 10° NNE
Cosmos 2082 Rocket 2.2 17:44:52 10° NNW 17:50:35 66° ENE 17:56:13 10° SE
Cosmos 1812 Rocket 3.8 17:47:05 10° SSE 17:51:21 48° E 17:55:39 10° NNE
Cosmos 2173 Rocket 4.5 17:46:33 10° N 17:52:15 36° ENE 17:57:52 10° SE
Cosmos 1939 Rocket 3.6 17:48:42 10° SE 17:52:16 32° ENE 17:55:55 10° N
CENTAUR R/B 3.3 17:47:43 10° SSE 17:52:39 28° ESE 17:56:59 15° ENE
BREEZE-M DEB (TANK) 2.5 17:53:50 10° SW 17:58:39 62° SSE 17:59:43 31° E
Falcon 9 debris 3.2 17:55:59 10° WNW 17:59:27 76° SSW 18:01:35 21° SE
Envisat 3.5 17:56:58 10° S 18:01:59 62° W 18:07:03 10° NNW
YAOGAN 1 2.5 17:57:55 10° SSE 18:02:14 79° ENE 18:06:35 10° N
Cosmos 967 Rocket 4.5 17:56:12 10° NNW 18:02:42 84° NE 18:09:12 10° SE
SKYMED 2 3.7 17:58:21 10° N 18:02:43 80° WNW 18:07:03 10° SSW
Unknown 3.1 17:59:44 10° WNW 18:03:16 89° NNE 18:05:02 28° ESE
Cosmos 44 3.6 18:01:02 10° S 18:05:43 43° ESE 18:08:22 22° ENE
Shenzhou-11 Module 4.3 18:07:27 10° WSW 18:09:19 16° SSW 18:10:44 12° S
H-2A R/B 3.5 18:11:50 20° ENE 18:11:50 20° ENE 18:15:33 10° NNE
Cosmos 1898 Rocket 3.9 18:06:47 10° N 18:11:50 44° ENE 18:14:40 24° ESE
Unknown 3.7 18:08:16 10° NW 18:11:55 49° NNE 18:12:58 37° ENE
In-Cosmos 22 Rocket 4.3 18:08:18 10° N 18:13:33 47° ENE 18:18:53 10° SSE
BREEZE M DEB (TANK) 2.8 18:11:28 10° WNW 18:13:57 53° SSW 18:17:54 17° SE
ATLAS 5 CENTAUR R/B 4.3 18:13:22 10° NW 18:15:51 14° NNW 18:18:31 10° NNE
Meteor 2-1 Rocket 4.3 18:11:42 10° SSE 18:16:57 48° E 18:22:18 10° NNE
Cosmos 2100 Rocket 3.9 18:15:24 10° N 18:21:33 63° E 18:27:37 10° SSE
USA 238 DEB 3.7 18:15:21 10° SW 18:22:03 82° NW 18:29:03 10° NE
USA 238 3.7 18:15:27 10° SW 18:22:10 83° NW 18:29:08 10° NE
USA 116 3.6 18:20:05 10° N 18:23:20 69° WNW 18:26:53 10° SSW
Unknown 3.6 18:21:10 10° WNW 18:24:37 56° SW 18:25:41 37° SSE
CZ-4 R/B 2.7 18:21:13 10° S 18:25:13 44° W 18:29:18 10° NNW
Abrixas rocket 2.5 18:23:58 10° W 18:26:58 50° N 18:27:03 50° N
Cosmos-2242 4.3 18:23:04 10° SSE 18:31:38 - NNE 18:25:01 24° SSE
Cosmos 2278 Rocket 3.3 18:25:33 10° SW 18:30:57 44° NW 18:36:23 10° NNE
DMSP B5D1-3 4.4 18:26:27 10° NNE 18:31:37 81° ESE 18:36:46 10° SSW
ATLAS CENTAUR R/B 3.7 18:31:04 10° N 18:33:06 13° NNE 18:33:06 13° NNE
Cosmos 2297 3.6 18:30:10 10° SSW 18:35:50 73° ESE 18:41:31 10° NNE
Cosmos 2016 Rocket 4.1 18:31:18 10° N 18:37:29 54° ENE 18:41:16 24° SE
SJ 16-02 1.7 18:37:18 10° N 18:41:02 46° NE 18:41:02 46° NE
Cosmos 2084 Rocket 4.1 18:38:26 10° NW 18:42:46 54° SW 18:44:44 29° S
NOSS 3-2 (A) 3.6 18:38:47 10° SW 18:44:34 69° NW 18:50:14 14° NE
Ariane Rocket 2.9 18:39:28 10° SSE 18:44:34 87° WSW 18:49:43 10° NNW
ARGOS 4.1 18:46:31 31° NE 18:46:31 31° NE 18:50:17 10° N
SL-08 R/B 4.5 18:40:20 10° N 18:46:18 53° ENE 18:47:42 44° ESE
Cosmos 468 Rocket 3.8 18:43:49 10° SSW 18:49:04 75° ESE 18:52:10 25° NNE
Unknown 3.9 18:46:35 10° NW 18:49:50 54° NNW 18:49:50 54° NNW
Cosmos 1892 4.4 18:50:36 10° N 18:52:13 24° N 18:52:13 24° N
Cosmos 990 Rocket 4.0 18:55:30 10° NNW 19:00:44 81° WSW 19:02:11 49° S
Cosmos 1937 Rocket 3.3 18:56:48 10° NNW 19:01:59 81° ENE 19:02:14 78° ESE
ADEOS Rocket 3.5 18:55:05 10° NNE 19:02:27 50° E 19:09:12 10° S
Cosmos 858 Rocket 4.3 18:58:28 10° NNW 19:03:42 87° ENE 19:04:10 74° SSE
Cosmos 1570 Rocket 4.0 19:02:20 10° SSW 19:07:01 67° SSE 19:07:01 67° SSE
Cosmos 1766 Rocket 4.3 19:03:23 10° N 19:06:20 43° N 19:06:20 43° N
Cosmos 1459 Rocket 4.3 19:02:00 10° NNW 19:08:10 65° W 19:14:24 10° S
NOSS 3-2 (C) 3.6 19:05:14 10° SW 19:11:01 70° NW 19:14:29 29° NNE
CZ-2C R/B 4.4 19:13:11 30° NNE 19:13:11 30° NNE 19:16:26 10° N
Lacrosse 5 3.6 19:09:47 10° WNW 19:13:59 27° SW 19:16:09 20° SSW
Cosmos 2061 Rocket 4.0 19:09:50 10° NNW 19:16:05 76° W 19:19:54 25° S
Okean 3 Rocket 4.4 19:16:59 10° NNW 19:21:22 49° W 19:21:40 48° WSW
Cosmos 1763 Rocket 3.7 19:20:06 10° SSW 19:25:17 71° WNW 19:25:17 71° WNW
Cosmos 2151 4.5 19:27:04 10° NNW 19:29:51 34° NW 19:29:51 34° NW
SPOT 3 Rocket 4.3 19:36:39 47° NNW 19:36:39 47° NNW 19:40:21 10° NNW
ATLAS 3B R/B 2.7 19:29:17 10° SW 19:36:00 71° NW 19:37:32 54° NNE
CENTAUR R/B 2.9 19:36:42 10° SW 19:42:42 62° NW 19:44:14 50° N
H-2A R/B 3.2 19:52:28 40° NNW 19:52:28 40° NNW 19:55:59 10° NNW
Cosmos 2123 Rocket 4.4 19:44:44 10° SSW 19:50:56 59° WNW 19:57:07 10° N
ATLAS CENTAUR R/B 4.5 20:08:58 10° NNW 20:09:18 12° NNW 20:09:18 12° NNW
SJ 16-02 4.3 20:16:56 10° NW 20:18:03 14° WNW 20:18:03 14° WNW
